Regional Weather Roundup
Issued by NWS Bismarck, ND

Home | Current Version | Previous Version | Text Only | Print | Product List | Glossary On
Versions: 1 2 3 4 5 6 7 8 9 10 11 12 13 14 15 16 17 18 19 20 21 22 23 24 25 26 27 28 29 30 31 32 33 34 35 36 37 38 39 40 41 42 43 44 45 46 47 48 49 50
000
ASUS43 KBIS 261110
RWRBIS

NWR BROADCAST TEXT
NATIONAL WEATHER SERVICE BISMARCK ND
600 AM CDT THU MAR 26 2015

NOTE: "FAIR" INDICATES FEW OR NO CLOUDS BELOW 12,000 FEET WITH NO
SIGNIFICANT WEATHER AND/OR OBSTRUCTIONS TO VISIBILITY.


CITY           SKY/WX    TMP DP  RH WIND       PRES   REMARKS
WILLISTON      LGT SNOW  29  27  92 E3        30.12F FOG
MINOT          CLOUDY    26  22  84 CALM      30.18R
MINOT AFB      CLOUDY    26  26  99 CALM      30.17S
BISMARCK       CLOUDY    25  23  92 E3        30.19R
DICKINSON      LGT SNOW  27  25  92 SE9       30.07F VSB 3/4 WCI  18
GARRISON         N/A     28  25  88 NE3       30.16S
HETTINGER ARPT LGT SNOW  29  23  78 E6        30.10F
JAMESTOWN      CLOUDY    21  18  88 NW5       30.17R WCI  15
BEACH          CLOUDY    28  28 100 E6        30.07R
CARRINGTON     FAIR      23  23 100 NE7       30.19R WCI  15
CROSBY         FAIR      25  25 100 SE6       30.15S WCI  18
HARVEY         FAIR      25  23  93 CALM      30.19R
HAZEN          CLOUDY    27  23  86 SW5       30.18S
LINTON         FAIR      23  23 100 CALM      30.18S
MANDAN         CLOUDY    27  23  86 W3        30.17F
OAKES            N/A     23  23 100 NW5       30.18R WCI  17
RUGBY          FAIR      23  21  93 E5        30.19S WCI  17
WATFORD CITY   LGT SNOW  27  27 100 SE8       30.11F WCI  18
$$

CITY           SKY/WX    TMP DP  RH WIND       PRES   REMARKS
GRAND FORKS    PTCLDY    21  17  84 NW8       30.22R WCI  11
GRAND FORKS AF MOCLDY    21  16  79 N8        30.22R WCI  12
DEVILS LAKE    CLOUDY    25  19  80 NE7       30.19R WCI  17
FARGO          CLOUDY    24  18  77 N9        30.19R WCI  14
CAVALIER         N/A     21  19  93 N9        30.24R WCI  11
GWINNER          N/A     25  25 100 N7          N/A  WCI  17
ROLLA          CLOUDY    23  23 100 E7        30.20R WCI  15
WALHALLA         N/A     19  19 100 N7        30.25R WCI  10
$$

CITY           SKY/WX    TMP DP  RH WIND       PRES   REMARKS
ABERDEEN       PTCLDY    25  19  78 NW7       30.19R WCI  17
MOBRIDGE       CLOUDY    22  17  81 N3        30.16R
BUFFALO          N/A     31  25  78 SE6       29.98F
RAPID CITY     CLOUDY    32  26  78 CALM      30.09F
GLASGOW        PTCLDY    29  24  82 E8        30.08R
SIDNEY         CLOUDY    30  28  93 N6        30.11S
WOLF POINT     CLOUDY    32  29  88 E9        30.10R FOG
GLENDIVE       MOCLDY    28  23  80 N9        30.07R WCI  20
MILES CITY     MOCLDY    37  29  72 W9        30.06S
BAKER          CLOUDY    32  27  81 E6        30.04F
$$

CITY           SKY/WX    TMP DP  RH WIND       PRES   REMARKS
BILLINGS       CLOUDY    47  29  49 W16       30.14S
GREAT FALLS    CLOUDY    44  32  62 SW17      30.13F
REGINA         PTCLDY    25  21  86 E13       30.15R WCI  13
ESTEVAN        CLOUDY    27  23  86 E9        30.15F WCI  17
$$



USA.gov is the U.S. government's official web portal to all federal, state and local government web resources and services.